User: anonymous   Login
Location: Pine Mountain Observatory
(43.7910°N, 120.9377°W)
Time: 13:37:43
(UTC-07:00)
Language:

IDEFIX/ARIANE 42P - Orbit

View from above orbital plane
View from above orbital plane
View from above satellite
View from above satellite

Ground track
Ground track

The orbit data is extracted from the following two-line orbital elements,

1 27422U 02021B   16127.48829509  .00000021  00000-0  24323-4 0  9995
2 27422  98.2321 144.3103 0012405   8.9195 351.2206 14.29240217728585
Epoch (UTC): 06 May 2016 11:43:08
Eccentricity: 0.0012405
inclination: 98.2321°
perigee height: 785 km
apogee height: 803 km
right ascension of ascending node: 144.3103°
argument of perigee: 8.9195°
revolutions per day: 14.29240217
mean anomaly at epoch: 351.2206°
orbit number at epoch: 72858

The dashed part of the orbit path shows where the satellite is in the earth's shadow,  

DLR